Regional Weather Roundup
Issued by NWS Pendleton, OR

Home | Current Version | Previous Version | Text Only | Print | Product List | Glossary On
Versions: 1 2 3 4 5 6 7 8 9 10 11 12 13 14 15 16 17 18 19 20 21 22 23 24 25 26 27 28 29 30 31 32 33 34 35 36 37 38 39 40 41 42 43 44 45 46 47 48 49 50
132
ASUS46 KPDT 262125
RWRPDT
PENDLETON REGIONAL WEATHER ROUNDUP
NATIONAL WEATHER SERVICE PENDLETON OREGON
200 PM PDT SAT MAY 26 2018

NOTE: FAIR INDICATES FEW OR NO CLOUDS BELOW 12,000 FEET WITH NO
SIGNIFICANT WEATHER AND/OR OBSTRUCTIONS TO VISIBILITY.

# INDICATES UNOFFICIAL STATION AND DATA

WAZ520-262210-
EAST SLOPES OF WASHINGTON CASCADES

CITY            SKY/WX      TMP DP  RH  WIND    PRES   REMARKS
#BULLFROG       N/A         58  39  49  W20     N/A
#CLE ELUM HS    N/A         57  40  53  W13     30.01R
#EASTON DOT     N/A         55  40  57  N3      N/A
#ELK HTS DOT    N/A         61  60  97  W6      N/A
#GLENWOOD       N/A         66  47  50  S7      30.00R
#NELSON 3SW     N/A         57  40  53  CALM    30.22R
#NILE           N/A         63  40  43  W3      29.34S
#TROUT LAKE 1NE N/A         60  43  53  W15     30.03R
#TROUT LAKE 1E  N/A         61  43  51  W2      30.10R
$$

WAZ521-262210-
SIMCOE HIGHLANDS

CITY            SKY/WX      TMP DP  RH  WIND    PRES   REMARKS
#BICKLETON HS   N/A         65  39  38  W3      29.66F
#SATUS PASS DOT N/A         66  35  32  W22     N/A
#CENTERVILLE 1SWN/A         60  45  58  W20     29.98F
#GOLDENDALE 1NE N/A         65  23  20  SW7     N/A
#GOLDENDALE 4W  N/A         62  20  20  SW8     30.07R
#GOODNOE HILLS  N/A         68  46  45  W23     29.92F
#LYLE 6NE       N/A         58  46  64  SW18    30.07R
#PITT 4SE       N/A         54  44  69  CALM    30.07S
$$

WAZ026-262210-
KITTITAS VALLEY

CITY            SKY/WX      TMP DP  RH  WIND    PRES   REMARKS
ELLENSBURG AP   SUNNY       68  42  39  NW28G39 29.99R
#ELLENSBURG CWU N/A         67  41  39  N21     29.88S
#ELLENSBURG 3NE N/A         63  44  50  N16     28.07R
#ELLENSBURG 1E  N/A         66  41  40  W7      30.00S
#KITTITAS 3S    N/A         66  46  48  W13     29.92S
#MANASTASH RDG  N/A         65  65  100 N21     N/A
#ROCKY CYN DOT  N/A         70  42  36  W22     N/A
#RYEGRASS DOT   N/A         63  39  41  CALM    N/A
#THORP 6N       N/A         69  48  47  CALM    29.82
$$

WAZ027-262210-
YAKIMA VALLEY

CITY            SKY/WX      TMP DP  RH  WIND    PRES   REMARKS
SUNNYSIDE AP    SUNNY       73  42  33  SW5     29.95F
YAKIMA AIRPORT  SUNNY       75  37  25  NW16    29.97S
#DONALD 2NE     N/A         80  18  10  W8      28.81S
#GRANDVIEW      N/A         74  36  25  W3      29.94F
#MABTON         N/A         74  44  34  CALM    29.95F
#MOXEE 2E       N/A         37  N/A N/A SW12    29.79S WCI 29
#NACHES 2SW     N/A         69  43  39  W13     29.99S
#OUTLOOK DOT    N/A         76  35  22  CALM    29.92F
#PARKER DOT     N/A         77  27  16  SE8     29.96S
#TERRACE HTS    N/A         78  43  29  W2      29.89F
#TOPPENISH      N/A         74  39  28  CALM    29.85S
#I82 S UMTANUM RN/A         72  38  29  W9      N/A
#UNION GAP DOT  N/A         75  33  21  NW6     29.99S
#W YAKIMA       N/A         72  41  33  W7      29.92F
#WHITE SWAN 5E  N/A         75  43  32  CALM    29.93F
#WILEY CITY 3W  N/A         78  35  21  CALM    29.93S
#ZILLAH DOT     N/A         76  34  22  W9      N/A
$$

WAZ028-262210-
LOWER COLUMBIA BASIN...WASHINGTON

CITY            SKY/WX      TMP DP  RH  WIND    PRES   REMARKS
HANFORD         MOSUNNY     79  35  20  N7      29.92S
PASCO           SUNNY       75  42  31  VRB7    29.96F
PROSSER AWOS    N/A         73  45  37  S12     29.98F
RICHLAND AWOS   SUNNY       79  41  26  S7      29.95F
#BASIN CITY 5SW N/A         74  48  40  S1      29.91F
#BENTON CITY    N/A         73  43  34  W9      29.85S
#CONNELL 5N     N/A         73  47  40  SW7     29.93F
#CONNELL 5NW    N/A         72  47  41  SW6     29.89S
#ELTOPIA 6NW    N/A         71  49  46  CALM    28.94F
#KAHLOTUS       N/A         69  43  39  W15     29.93F
#KENNEWICK 3S   N/A         73  47  40  SW6     29.95F
#PROSSER DOT    N/A         75  40  28  S10     29.96F
#SAGEMOOR 2W    N/A         72  51  48  S7      29.80F
#TOUCHET 2S     N/A         72  51  48  SW6     29.94F
#WEST PASCO     N/A         74  47  38  CALM    29.96F
$$

WAZ029-262210-
FOOTHILLS OF THE BLUES...WASHINGTON

CITY            SKY/WX      TMP DP  RH  WIND    PRES   REMARKS
WALLA WALLA AP  LGT RAIN    68  43  40  S10     30.01S
#CLYDE 6NW      N/A         69  44  40  W9      29.93S
#DELANEY DOT    N/A         69  43  39  SW6     N/A
#LOWDEN 2SE     N/A         71  46  41  W7      29.95F
#PLEASANT VIEW 1N/A         69  45  42  S13     29.97S
#PRESCOTT       N/A         69  47  45  CALM    29.95F
#WHITMAN COLLEGEN/A         67  44  43  S7      30.02S
#WAITSBURG 6SSE N/A         64  42  45  S5      29.82S
#WAITSBURG 8N   N/A          0  N/A N/A S5      29.79S
#WALLA WALLA 5E N/A         68  50  53  SW8     N/A
#WALLA WALLA U  N/A         69  45  42  CALM    29.97F
#WHITMAN MISSIONN/A         69  47  45  SW3     29.98S
$$

WAZ030-262210-
BLUE MOUNTAINS...WASHINGTON

CITY            SKY/WX      TMP DP  RH  WIND    PRES   REMARKS
#DIXIE 5SE      N/A         46  40  79  SW7     29.96S
$$

ORZ009-041-WAZ024-262210-
COLUMBIA RIVER GORGE

CITY            SKY/WX      TMP DP  RH  WIND    PRES   REMARKS
HOOD RIVER AP   PTCLDY      63  45  52  W7      30.12S
THE DALLES AP   SUNNY       70  42  36  W20G35  30.06S
#ARLINGTON AIRPON/A         69  46  44  W20     29.98F
#CELILO DOT     N/A         68  45  44  SW14    N/A
#LYLE           N/A         62  47  58  W22     30.09S
#MARYHILL       N/A         66  43  43  N25     29.88
#MURDOCK        N/A         64  47  54  W20G35  30.01F
#RUFUS DOT      N/A         68  43  40  W18     N/A
#SMITHVILLE     N/A         66  47  50  N15G26  30.04F

$$

ORZ510-262210-
NORTH CENTRAL OREGON

CITY            SKY/WX      TMP DP  RH  WIND    PRES   REMARKS
#ANTELOPE       N/A         63  40  43  SW6     29.86F
#CHENOWITH 1W   N/A         58  42  55  W33     N/A
#COW CYN RST AREN/A         59  37  44  SW6     N/A
#DUFUR          N/A         65  42  43  W7      30.01S
#DUFUR 9E       N/A         57  41  55  W22     30.10S
#GRASS VALLEY 1SN/A         62  43  50  NW15    30.07F
#KENT DOT       N/A         62  34  35  NW18    N/A
#SHANIKO 5WSW   N/A         59  36  42  SW8     N/A
#SHANIKO 4NW    N/A         57  35  43  N5      30.07S
#TYGH VALLEY 2NEN/A         68  41  37  N8      30.01S
#WAPANITIA AIRPON/A         64  43  46  W10     30.04S
#WASCO DOT      N/A         65  42  43  W14     N/A
#WASCO 5NE      N/A         64  45  50  W12     30.00S
$$

ORZ511-262210-
CENTRAL OREGON

CITY            SKY/WX      TMP DP  RH  WIND    PRES   REMARKS
BEND AIRPORT    PTCLDY      63  39  41  NW9     30.07S
MADRAS AIRPORT  SUNNY       63  37  38  NW21G28 30.10F
PRINEVILLE AP   SUNNY       63  34  34  NW20G25 30.07S
REDMOND AIRPORT PTCLDY      65  39  38  N15     30.06F
#ASHWOOD SCHOOL N/A         62  38  41  W7      30.03S
#BEND-AWBREY    N/A         63  45  52  E7      30.01F
#BEND-KIM LN    N/A         60  43  53  NW9     29.98S
#CULVER         N/A         63  39  41  NE7     29.83F
#CULVER 8W      N/A         66  28  24  N1      30.06S
#LAKE BILLY CHINN/A         64  N/A N/A N13     30.12R
#POWELL BUTTE   N/A         62  37  39  NW18    30.02S
#PRINEVILLE     N/A         63  39  41  W6      30.07S
#PRINEVILLE 3N  N/A         61  43  51  NW17    29.99S
#WARM SPRINGS   N/A         64  40  41  CALM    29.91F

$$


ORZ509-262210-
EAST SLOPES OF OREGON CASCADES

CITY            SKY/WX      TMP DP  RH  WIND    PRES   REMARKS
SISTERS AWOS    N/A         57  39  51  W17     30.06S
#CAMP SHERMAN   N/A         64  42  45  N3      30.10S
#LA PINE 4NW    N/A         55  41  59  NW5     30.05F
#LAVA BUTTE DOT N/A         61  32  33  NW2     N/A
#SISTERS ODOT   N/A         59  36  42  W8      N/A
#SISTERS 3N     N/A         58  39  49  W6      30.11R
#SUNRIVER       N/A         60  41  49  N3      30.02R
#TUMALO 3W      N/A         57  40  53  N10     29.92R
#WANOGA BUTTE D N/A         50  N/A N/A SW2     N/A

$$

ORZ044-262210-
LOWER COLUMBIA BASIN...OREGON

CITY            SKY/WX      TMP DP  RH  WIND    PRES   REMARKS
HERMISTON       SUNNY       76  41  28  SW12    29.98F
#BOARDMAN SCHOOLN/A         72  44  37  S9      29.96F
#BOARDMAN 8SW   N/A         72  46  39  W14     29.97F
#ECHO 8SW       N/A         71  42  35  W8      29.99F
#I-84 EX 198 DOTN/A         69  45  42  NE8     N/A
#IONE SCHOOL    N/A         67  41  39  W8      29.99F
#UMATILLA       N/A         74  44  34  W3      29.89F
$$

ORZ507-262210-
NORTHERN FOOTHILLS OF THE BLUES

CITY            SKY/WX      TMP DP  RH  WIND    PRES   REMARKS
PENDLETON AIRPT MOCLDY      69  36  30  CALM    30.00F
#ADAMS 3WNW     N/A         67  43  42  S7      29.96F
#ATHENA         N/A         65  44  46  CALM    30.00F
#CAYUSE         N/A         65  44  46  S6      29.97S
#HELIX SCHOOL   N/A         65  43  45  N8      29.96F
#HELIX 3N       N/A         64  45  50  W10     30.02F
#HOLDMAN 6E     N/A         67  46  47  SW3     29.77F
#M-F GROVE ELEM N/A         66  40  38  S5      29.98F
#M-FREEWATER 5SEN/A         64  46  52  CALM    30.01S
#PENDLETON DNTN N/A         73  41  31  NW2     N/A
#PDT AQUATIC CTRN/A         68  41  37  CALM    29.99F
#PDT SUNRIDGE   N/A         69  42  37  NW2     30.01F
#PENDLETON 6SE  N/A         67  45  45  SW1     29.92F
#PENDLETON 7NW  N/A         70  48  46  CALM    32.35S
#PILOT ROCK     N/A         69  43  39  CALM    30.02F
#TUTUILLA       N/A         67  47  49  CALM    30.06S
#UMAPINE 2E     N/A         69  48  47  SW3     29.97F

$$

ORZ508-262210-
SOUTHERN FOOTHILLS OF THE BLUES

CITY            SKY/WX      TMP DP  RH  WIND    PRES   REMARKS
#AJAX           N/A         64  38  38  CALM    30.19F
#FOSSIL SCHOOL  N/A         61  39  44  W9      29.99S
#HEPPNER EOC    N/A         66  41  40  W6      29.91S
#HEPPNER 4NE    N/A         61  43  51  NW3     29.97S
#LEXINGTON 2SE  N/A         70  42  36  N6      29.98F
#OLEX 4N        N/A         66  43  43  W16     30.00F
#RUGGS 5NE      N/A         65  39  38  W8      30.20F
#RUGGS 2SW      N/A         63  40  43  W8      29.98F

$$

ORZ502-503-262210-
BLUE MOUNTAINS

CITY            SKY/WX      TMP DP  RH  WIND    PRES   REMARKS
MEACHAM         CLOUDY      55  40  57  VRB7    30.05S
#BATTLE MTN DOT N/A         54  36  50  N2      N/A
#GRANITE        N/A         55  43  64  NE3     29.65F
#HARDMAN 10S    N/A         57  41  55  SW2     30.09R
#LADD CYN SMT   N/A         58  44  60  NW12    N/A
#LADD CREEK ODOTN/A         61  43  51  CALM    N/A
#N POWDER DOT   N/A         59  44  57  N16     N/A
#PIKES PEAK     N/A         52  40  63  SW13    27.99S
#SUMMERVILLE 5NWN/A         62  49  62  N7      26.65F
#TOLLGATE       N/A         49  43  80  SW2     30.09S
#TROY SCHOOL    N/A         67  55  65  CALM    29.75F
#UKIAH          N/A         56  46  69  N1      29.89R
$$

ORZ505-262210-
JOHN DAY BASIN

CITY            SKY/WX      TMP DP  RH  WIND    PRES   REMARKS
JOHN DAY        CLOUDY      59  45  60  NW7     30.03S
#ANTELOPE 9ESE  N/A         70  39  32  NW1     N/A
#DAYVILLE SCHOOLN/A         64  40  41  VRB10   29.99S
#MITCHELL 8NW   N/A         62  37  39  NW1     30.01F
#MONUMENT HS    N/A         65  40  40  S1      29.99F
#MT. VERNON 5SE N/A         57  44  62  W3      29.98S
#SPRAY SCHOOL   N/A         70  N/A N/A NW5     N/A
$$

ORZ506-262210-
OCHOCO AND JOHN DAY HIGHLANDS

CITY            SKY/WX      TMP DP  RH  WIND    PRES   REMARKS
#HORSE RIDGE DO N/A         58  34  40  NW16    N/A
#KEYES SMT DOT  N/A         56  36  47  NW12    N/A
#PAULINA ODOT   N/A         63  39  41  W6      N/A
#PINE MTN OBS   N/A         47  38  71  NW3     N/A
#PRAIRIE CITY   N/A         61  48  62  SW2     30.15F
#SENECA         N/A         57  N/A N/A N7      N/A
#SENECA 9NW     N/A         56  43  62  NE2     29.90R
$$

ORZ049-262210-
GRANDE RONDE VALLEY

CITY            SKY/WX      TMP DP  RH  WIND    PRES   REMARKS
LA GRANDE       CLOUDY      63  47  56  NW16    30.00F
#COVE SCHOOL    N/A         60  50  69  CALM    30.01F
#COVE 6NW       N/A         60  50  69  W3      29.91F
#ELGIN 3N       N/A         61  44  53  S1      29.96F
#ELGIN 1E       N/A         62  47  58  CALM    N/A
#IMBLER SCHOOL  N/A         60  45  58  N2      29.96F
#ISLAND CITY 4N N/A         61  50  67  CALM    30.19S
#LADD CYN DOT   N/A         63  46  54  W8      N/A
#UNION 1S       N/A         61  49  65  W8      29.91F
$$

ORZ050-262210-
WALLOWA COUNTY

CITY            SKY/WX      TMP DP  RH  WIND    PRES   REMARKS
#ENTERPRISE HS  N/A         58  50  75  W5      29.77F
#IMNAHA 10S     N/A         59  52  78  NE3     29.96S
#JOSEPH         N/A         57  49  75  N8      30.20S
#JOSEPH 3N      N/A         57  47  69  NW8     30.03F
#JOSEPH 3W      N/A         54  51  90  E3      29.85F
#LOSTINE        N/A         59  50  72  CALM    29.70F
#LOSTINE 3SE    N/A         57  48  72  E5      30.07F
#MT HOWARD 8000 N/A         41  40  96  N2      30.09F
#PROMISE 1S     N/A         56  51  83  N1      30.01F
#WALLOWA LAKE   N/A         56  49  77  CALM    30.03F



$$



USA.gov is the U.S. government's official web portal to all federal, state and local government web resources and services.